Regional Weather Roundup
Issued by NWS

Home | Current Version | Previous Version | Graphics & Text | Print | Product List | Glossary On
Versions: 1 2 3 4 5 6 7 8 9 10 11 12 13 14 15 16 17 18 19 20 21 22 23 24 25 26 27 28 29 30 31 32 33 34 35 36 37 38 39 40 41 42 43 44 45 46 47 48 49 50
000
ASUS43 KFSD 270410
RWRSD

WEATHER ROUNDUP FOR SOUTH DAKOTA
NATIONAL WEATHER SERVICE SIOUX FALLS SD
1000 PM CST THU FEB 26 2015

NOTE: "FAIR" INDICATES FEW OR NO CLOUDS BELOW 12,000 FEET WITH NO
SIGNIFICANT WEATHER AND/OR OBSTRUCTIONS TO VISIBILITY.


SDZ001>005-009-010-012>017-270500-
NORTHWEST AND NORTH CENTRAL SOUTH DAKOTA

CITY           SKY/WX    TMP DP  RH WIND       PRES   REMARKS
BUFFALO          N/A      2  -7  66 SE6       30.30F WCI  -9
FAITH            N/A      4  -6  63 E6        30.42F WCI  -7
MOBRIDGE       CLEAR     -5 -11  75 CALM      30.48S
$$

SDZ012>016-024>037-041>051-057-063-072>074-270500-
SOUTHWEST AND SOUTH CENTRAL SOUTH DAKOTA

CITY           SKY/WX    TMP DP  RH WIND       PRES   REMARKS
RAPID CTY ARPT CLEAR     -4 -12  68 NW6       30.38S WCI -16
PIERRE         CLEAR     -1  -7  75 NE3       30.52S
CUSTER         PTCLDY    -9 -14  78 N3        30.14F
ELLSWORTH AFB  CLEAR     -4 -12  68 W6        30.36F WCI -17
PHILIP         CLEAR     -2  -9  72 CALM      30.48S
PINE RIDGE     CLEAR     -1  -7  75 CALM      30.37F
WINNER         FAIR       4  -8  57 CALM      30.50S
$$

SDZ004>011-016>023-039-040-270500-
NORTHEAST SOUTH DAKOTA

CITY           SKY/WX    TMP DP  RH WIND       PRES   REMARKS
ABERDEEN       CLEAR    -10 -15  78 W6        30.55S WCI -23
WATERTOWN      CLEAR     -5 -10  79 NW8       30.47S WCI -20
SISSETON         N/A     -4 -10  75 NW9       30.52S WCI -20
$$

SDZ017-020-022-023-036>040-048>070-270500-
SOUTHEAST SOUTH DAKOTA

CITY           SKY/WX    TMP DP  RH WIND       PRES   REMARKS
SIOUX FALLS    CLEAR     -5 -10  79 NW8       30.52S WCI -20
HURON          PTCLDY   -13 -17  82 W8        30.56S WCI -30
CHAMBERLAIN    CLEAR      0  -8  68 NE3       30.53S
MITCHELL       CLEAR     -2  -7  79 NW7       30.57S WCI -15
YANKTON        CLEAR      0  -6  78 NW5       30.58R WCI -10
$$

ABBREVIATIONS USED IN REMARKS
   TC - TEMPERATURE IN CELSIUS
  WCI - WIND CHILL INDEX
   HX - HEAT INDEX
  VSB - VISIBILITY




USA.gov is the U.S. government's official web portal to all federal, state and local government web resources and services.